loading
|

OBJECT K, 61236

Orbit data source: Space-Track

OBJECT K, 61236 is a satellite owned by Changzheng H. (CN) in SSO that was launched on Tue, 24 Sep 2024 UTC launched from the Yellow Sea Launch Area, China (YSLA). Unknown objects in Earth's orbit typically refer to objects detected orbiting the Earth but have not yet been identified or cataloged. These objects could be anything from previously untracked satellites, spent rocket stages, debris from satellite collisions, or even natural meteoroids temporarily captured by Earth's gravity.

Loading next visibility...
Next conjunction unknown
Loading greatness...
OBJECT K details
Identifier
61236, 2024-173K
Orbit
SSO
Last TLE update11 hours ago
Origin
Flag of CNChangzheng H. (CN / PRC)
ManufacturerChangzheng H.
MissionSpacecraft
Bus & MotorUnknown bus, Unknown motor
MassUnknown
Launch date (UTC)
2024-09-24 (3 weeks ago)
Launch vehicleUnknown
Launch site
Yellow Sea Launch Area, China (YSLA)
Object typeUnknown
Shape & HBRUnknown
Radar Cross SectionMedium (>0.1 m² and <1 m²)

Expand to show TLE details & history

TLE from 11 hours ago
0 OBJECT K
1 61236U 24173K   24288.20304986  .00039298  00000-0  14289-2 0  9998
2 61236  97.4406   0.9634 0020551 228.1235 131.8251 15.27949114  3072
Epoch: 2024-10-14T04:52Z
Definitive object data (Epoch: 2024-10-14T04:52:23.507Z)
Latitude-0.0001°
Longitude-95.36809°
Altitude494.464 km
Speed7.612 km/s
True Right ascension00h 03m 51s
True Declination0° 00' 00"
Sunlit
Object was in full shadow at TLE epoch
Predictive object data (real-time)
Latitude-14.43002°
Longitude-92.99796°
Altitude494.753 km
Speed7.613 km/s
Apparent Right ascension23h 26m 42s
Apparent Declination-27° 12' 22"
Sunlit
Object is in full shadow
Predictive observer data (real-time)
Local Sidereal Time10:22:58
Azimuth309.052° NW
Elevation-71.675°
Doppler factor1
Orbital elements
Apogee492.993 km
Perigee464.809 km
Semi-major axis6,857.038 km
Eccentricity0.0020551
Inclination97.4406°
RAAN0.9634°
Arg. of periapsis228.1235°
True anomaly132.00029°
Mean anomaly131.8251°
Eccentric anomaly131.91272°
Mean motion3.82242 °/min
BSTAR0.0014289
Period94.18 mins
No data available

OBJECT K Visibility forecast

Observer location: 39.9160978°, -105.1181434

Span
Click to sort rows by Start time (UTC) header in descending order
Start Az.
Max El. time (UTC)
Max El. Az.
Max El.
End time (UTC)
End Az.
6 mins2024-10-14 18:00:43.076Z6.02° NNE2024-10-14 18:03:43.076Z240.856° WSW42.383°2024-10-14 18:06:43.076Z199.876° SSW
5 mins2024-10-15 04:35:43.076Z129.836° SE2024-10-15 04:37:43.076Z78.892° E30.356°2024-10-15 04:40:43.076Z9.044° NNE